Location: Unspecified
(48.5910°N, 12.0210°E)
Time: 19:55:47
(UTC+00:00)

Daily predictions for brighter satellites

Satellite Brightness Start Highest point End
(mag) Time Altitude Azimuth Time Altitude Azimuth Time Altitude Azimuth
Cosmos 1844 Rocket 2.8 16:27:52 10° SSW 16:33:25 62° ESE 16:39:00 10° NNE
Okean 1-7 Rocket 3.9 16:30:40 10° S 16:35:05 51° E 16:39:31 10° NNE
COSMO-SKYMED 1 3.6 16:33:24 10° NE 16:37:02 25° E 16:40:39 10° SSE
Cosmos-2242 4.5 16:40:57 10° NNE 16:43:44 17° ENE 16:46:31 10° ESE
TELKOM 3 2.8 16:44:43 10° W 16:46:52 62° N 16:48:53 13° ENE
Landsat 5 3.6 16:44:49 10° N 16:48:41 69° WNW 16:52:29 10° SSW
Meteor 1-24 Rocket 4.4 16:45:37 10° SSW 16:50:47 53° WNW 16:56:01 10° N
H-2A R/B 2.9 16:46:47 10° ESE 16:51:01 28° ENE 16:55:23 10° N
ATLAS 5 CENTAUR R/B 3.3 16:47:49 10° W 16:51:21 24° NNW 16:55:18 10° NNE
NOSS 3-1 (C) 4.0 16:44:34 10° NW 16:51:52 71° NE 17:00:25 10° SE
CZ-4B R/B 1.9 16:54:53 10° NNE 16:58:02 37° E 17:01:04 10° SSE
H-2A R/B 2.1 16:53:54 10° NNE 16:58:21 86° WNW 17:02:39 10° SSW
Cosmos 2278 Rocket 3.5 16:54:36 10° SE 16:58:38 20° E 17:02:07 12° ENE
Cosmos 1602 Rocket 4.1 16:55:57 10° SSE 16:59:57 36° E 17:03:58 10° NNE
CZ-4C R/B 4.0 16:55:57 10° WNW 17:00:33 24° NNW 17:05:53 10° NE
IRS-1C Rocket 4.3 16:56:06 10° SE 17:01:08 49° ENE 17:06:12 10° N
CZ-4B R/B 3.9 16:58:43 10° S 17:04:14 60° WSW 17:09:52 10° NNW
Cosmos 1818 3.8 16:59:49 10° SW 17:05:14 70° NW 17:10:43 10° NE
YAOGAN 1 3.2 17:01:55 10° SE 17:05:46 32° ENE 17:09:38 10° N
MOS 1 Rocket 3.5 17:02:11 10° NNE 17:06:13 39° E 17:10:15 10° SSE
SMAP 4.3 17:01:47 10° S 17:06:14 45° W 17:10:44 10° NNW
NOSS 2-1 (C) 3.3 17:03:27 10° SSW 17:06:39 44° SE 17:09:01 17° ENE
Cosmos 1892 Rocket 4.5 17:02:50 10° SSW 17:07:03 51° WNW 17:11:18 10° N
SJ 16-02 1.5 17:03:17 10° SSW 17:07:40 74° WNW 17:12:05 10° NNE
Cosmos 2112 Rocket 3.9 17:02:33 10° NNW 17:07:49 75° ENE 17:13:00 10° SSE
ERS-2 3.1 17:07:16 11° NE 17:10:10 27° E 17:13:18 10° SSE
USA 229 DEB 3.9 17:05:00 10° NW 17:12:14 70° NE 17:19:53 10° SE
USA 229 3.9 17:05:06 10° NW 17:12:20 69° NE 17:19:59 10° SE
Okean O Rocket 2.6 17:08:04 10° S 17:12:23 51° W 17:16:42 10° NNW
NOSS 2-1 (D) 3.1 17:09:19 10° SSW 17:12:33 51° SE 17:14:47 19° NE
CZ-4 R/B 4.4 17:09:04 10° SSE 17:13:09 60° ENE 17:17:16 10° N
Cosmos 1340 3.0 17:11:10 10° SSE 17:14:43 42° E 17:18:17 10° NNE
Cosmos 1328 4.1 17:13:01 10° SSE 17:16:49 43° E 17:20:36 10° NNE
Cosmos 1812 Rocket 3.5 17:13:04 10° N 17:17:25 59° ENE 17:21:42 10° SSE
Cosmos 990 Rocket 3.9 17:14:13 10° S 17:19:23 68° ESE 17:24:33 10° NNE
Okean-O 2.9 17:16:10 10° SE 17:20:23 46° ENE 17:24:39 10° N
SeaSat 1 4.3 17:16:27 10° N 17:20:31 26° NW 17:24:34 10° W
Cosmos 1455 2.9 17:17:01 10° NNW 17:20:47 57° W 17:24:32 10° S
CSL-04 DEB 4.4 17:17:09 10° NNE 17:21:20 89° ESE 17:25:22 10° SSW
Helios 1A Rocket 3.4 17:20:35 10° SE 17:24:24 37° ENE 17:28:14 10° N
SKYMED 2 3.5 17:20:57 10° NNE 17:25:19 75° ESE 17:29:40 10° S
CZ-2C R/B 3.2 17:19:58 10° SSE 17:25:26 83° ENE 17:31:11 10° NNW
ARGOS 3.5 17:21:16 10° SE 17:26:12 39° ENE 17:31:11 10° N
USA 290 2.8 17:23:34 10° N 17:26:32 33° ENE 17:27:14 30° E
Cosmos 2263 Rocket 4.3 17:22:34 10° W 17:26:38 20° NW 17:30:41 10° N
CZ-2D R/B 3.3 17:23:12 10° SSE 17:27:03 84° WSW 17:30:55 10° NNW
NOSS 3-1 (A) 4.0 17:20:29 10° NW 17:27:50 74° NE 17:36:27 10° SE
Lacrosse 5 4.4 17:27:30 10° WNW 17:31:18 22° SW 17:35:06 10° S
HJ-1C 4.2 17:34:02 30° NE 17:34:02 30° NE 17:36:36 10° N
Cosmos 1939 Rocket 4.0 17:30:13 10° S 17:34:11 47° W 17:38:07 10° NNW
CZ-2C R/B 3.6 17:31:46 19° NE 17:34:18 26° E 17:38:55 10° SSE
ATLAS 2AS CENTAUR R/B 4.3 17:28:08 10° WNW 17:34:42 27° NNW 17:40:11 13° NE
SAR-Lupe-4 3.9 17:34:08 25° NE 17:35:45 42° E 17:39:09 10° S
Cosmos 1627 Rocket 4.4 17:29:44 10° S 17:35:52 67° E 17:42:07 10° NNE
Aureole 3 Rocket 2.3 17:39:49 10° N 17:42:57 80° E 17:46:43 10° SSE
Cosmos 1092 Rocket 4.0 17:40:09 10° S 17:46:21 86° W 17:52:32 10° N
Iridium 4 Rocket 3.4 17:41:09 10° N 17:46:42 81° E 17:51:44 10° S
Cosmos 858 Rocket 4.4 17:43:28 10° SSW 17:48:44 74° ESE 17:53:11 15° NNE
ISS -3.3 17:47:49 10° W 17:51:08 49° N 17:51:38 45° NNE
USA 234 3.9 17:47:42 24° ENE 17:51:15 43° N 17:57:21 10° WNW
SAR-Lupe-1 3.9 17:50:40 33° NNE 17:52:08 67° ESE 17:55:43 10° S
Cosmos 2344 4.3 17:43:27 10° NW 17:52:39 87° NE 18:05:34 10° SE
CSL-04 Debris 4.1 17:48:37 10° SSE 17:53:56 64° ENE 17:59:17 10° N
Cosmos 405 3.2 17:51:48 10° NNW 17:55:20 71° W 17:58:49 10° S
DMSP B5D1-3 4.5 17:52:19 10° NNE 17:57:22 58° ESE 18:02:23 10° S
Meteor 2-19 Rocket 4.3 17:51:51 10° S 17:57:58 71° E 18:04:07 10° NNE
BREEZE-M DEB (TANK) 2.1 17:56:00 10° WNW 17:57:53 65° W 17:57:53 65° W
SL-08 RB Rocket 3.8 17:56:52 35° ESE 17:58:17 47° ENE 18:02:36 10° N
Cosmos 1833 Rocket 2.6 17:53:16 10° NNW 17:58:55 88° ENE 18:04:32 10° SSE
CZ-4 R/B 1.7 17:54:55 10° S 17:58:56 65° WSW 18:02:55 10° NNW
SJ-11-01 4.2 17:55:06 10° SSE 17:59:47 89° ENE 18:04:30 10° NNW
Cosmos 44 4.0 17:56:44 10° WSW 18:01:30 53° NW 18:04:50 21° NNE
Meteor 1-27 4.1 17:58:37 10° N 18:04:14 70° ENE 18:09:46 10° SSE
Cosmos 2292 Rocket 4.4 18:01:04 10° SSE 18:04:40 35° SE 18:04:40 35° SE
Cosmos 1898 Rocket 4.0 18:02:29 10° SW 18:07:40 59° WNW 18:12:33 12° NNE
COSMOS 2406 3.5 18:01:58 10° NNW 18:07:45 72° WSW 18:13:28 10° SSE
NOSS 2-1 (E) 3.6 18:04:32 10° WSW 18:07:46 51° NW 18:08:25 43° N
X-37B 1.8 18:07:36 10° W 18:10:23 36° SSW 18:10:23 36° SSW
USA 281 4.4 18:12:40 22° NE 18:12:40 22° NE 18:17:10 10° N
COSMO-SKYMED 1 4.0 18:09:17 10° N 18:13:18 37° WNW 18:17:17 10° SW
Cosmos 1689 Rocket 3.4 18:14:21 34° SW 18:14:21 34° SW 18:16:10 10° SSW
Cosmos 2082 Rocket 2.1 18:08:39 10° NNW 18:14:23 68° ENE 18:16:36 38° SE
Cosmos 1844 Rocket 4.4 18:12:53 10° WSW 18:17:44 28° NW 18:22:36 10° NNE
Cosmos 372 Rocket 3.8 18:12:44 10° SSW 18:17:55 72° ESE 18:19:29 45° NE
Cosmos 1048 Rocket 3.9 18:14:23 10° NNW 18:19:28 58° ENE 18:19:38 58° ENE
Cosmos 1758 Rocket 4.0 18:16:00 10° SSW 18:20:25 62° WNW 18:24:54 10° N
Cosmos-2242 3.6 18:17:27 10° NNW 18:21:40 57° W 18:25:54 10° S
Cosmos 2266 Rocket 4.1 18:20:40 10° SSE 18:33:14 - NNE 18:26:00 49° ESE
Cosmos 1346 Rocket 3.0 18:23:47 10° SSW 18:27:42 69° WNW 18:27:48 68° WNW
CZ-4B R/B 4.3 18:27:51 10° NNW 18:29:56 16° WNW 18:31:59 10° WSW
H-2A R/B 3.0 18:25:21 10° S 18:30:12 47° W 18:35:14 10° NNW
Meteor 2-2 Rocket 4.3 18:24:20 10° N 18:30:13 58° ENE 18:30:19 58° ENE
Cosmos 1937 Rocket 4.3 18:28:19 10° SW 18:33:29 50° WNW 18:37:18 18° N
Cosmos 1809 Rocket 4.3 18:27:49 10° S 18:33:50 62° E 18:39:56 10° NNE
Cosmos 1553 Rocket 4.3 18:30:39 10° NNW 18:37:00 67° W 18:43:15 10° S
CSL-04 Rocket 4.1 18:32:20 10° S 18:37:43 63° WSW 18:43:13 10° NNW
ATLAS 5 CENTAUR R/B 4.0 18:34:58 10° NW 18:37:45 15° N 18:38:05 15° N
MetOp-A 4.2 18:38:47 61° NNE 18:38:47 61° NNE 18:43:27 10° N
YAOGAN 1 4.5 18:38:04 10° SSW 18:41:52 29° W 18:45:41 10° NNW
Cosmos 2278 Rocket 2.3 18:36:27 10° SW 18:42:07 73° WNW 18:44:01 43° NNE
ERS-2 4.3 18:41:50 17° NNW 18:43:38 25° WNW 18:46:39 10° WSW
SJ 16-02 4.2 18:45:25 10° WNW 18:47:05 12° NW 18:48:46 10° NNW
Cosmos 2315 Rocket 4.3 18:43:51 10° N 18:48:32 48° NNE 18:48:32 48° NNE
CZ-4C R/B 4.0 18:46:11 10° NW 18:51:20 24° NNE 18:51:43 24° NNE
CZ-3B R/B 4.0 18:48:07 10° WNW 18:51:32 38° SSW 19:02:14 10° SSE
Cosmos 883 Rocket 4.3 18:51:29 10° N 18:57:22 78° NNE 18:57:22 78° NNE
Cosmos 1655 Rocket 4.0 18:53:18 10° SSW 18:59:32 80° W 19:05:47 10° N
S3M 4.4 18:56:17 10° NNW 19:02:18 61° W 19:08:18 10° S
CZ-2C R/B 3.3 19:13:15 41° NNW 19:14:53 55° WNW 19:20:21 10° SW
ATLAS 2AS CENTAUR R/B 4.1 19:21:34 10° NW 19:27:37 29° N 19:27:37 29° N
USA 234 3.7 19:35:03 54° NNW 19:35:03 54° NNW 19:40:12 10° NW
Cosmos 2082 Rocket 4.2 19:53:38 10° NW 19:57:55 22° W 19:58:32 22° WSW
